GW1599 Weather Reports


time (UTC)temp
C
wind
direction
speed
KPH
gust
KPH
rain 1hr
cm
rain 24hr
cm
rain mn
cm
humidity
%
barometer
mb
20260502183016 13 168 0.0 8.0 0.00 0.00 0.00 44 1017.2
20260502182440 13 215 1.6 11.3 0.00 0.00 0.00 47 1017.2
20260502181833 12 102 4.8 6.4 0.00 0.00 0.00 48 1017.6
20260502181254 12 94 0.0 6.4 0.00 0.00 0.00 47 1017.6
20260502180621 12 121 1.6 6.4 0.00 0.00 0.00 45 1017.6
20260502164244 13 63 3.2 9.7 0.00 0.00 0.00 47 1017.9
20260502163631 13 201 3.2 9.7 0.00 0.00 0.00 47 1017.9
20260502163053 13 134 1.6 8.0 0.00 0.00 0.00 45 1018.2
20260502162442 13 162 1.6 11.3 0.00 0.00 0.00 47 1017.9
20260502161816 13 175 3.2 9.7 0.00 0.00 0.00 44 1018.2
20260502161221 14 153 4.8 6.4 0.00 0.00 0.00 43 1018.2
20260502160623 14 112 3.2 8.0 0.00 0.00 0.00 47 1018.2
20260502151833 13 148 4.8 12.9 0.00 0.00 0.00 45 1018.6
20260502151241 13 107 3.2 12.9 0.00 0.00 0.00 51 1018.6
20260502150650 13 151 4.8 9.7 0.00 0.00 0.00 47 1018.6
20260502130631 6 159 0.0 0.0 0.00 0.00 0.00 95 1018.9
20260502123635 3 169 1.6 4.8 0.00 0.00 0.00 95 1018.9
20260502122440 2 71 0.0 1.6 0.00 0.00 0.00 95 1018.6
20260502121222 2 231 0.0 0.0 0.00 0.00 0.00 94 1018.9
20260502120644 2 231 0.0 0.0 0.00 0.00 0.00 94 1018.9
20260502115451 1 245 0.0 0.0 0.00 0.00 0.00 94 1018.9
20260502114813 1 248 0.0 0.0 0.00 0.00 0.00 94 1018.6
20260502114232 1 164 0.0 0.0 0.00 0.00 0.00 93 1018.6
20260502113611 1 164 0.0 0.0 0.00 0.00 0.00 93 1018.9
20260502113039 1 164 0.0 0.0 0.00 0.00 0.00 93 1018.6
20260502112437 1 209 0.0 0.0 0.00 0.00 0.00 93 1018.6
20260502111828 1 209 0.0 0.0 0.00 0.00 0.00 93 1018.6
20260502111226 1 209 0.0 0.0 0.00 0.00 0.00 93 1018.6
20260502110017 1 239 0.0 0.0 0.00 0.00 0.00 93 1018.6
20260502105418 1 239 0.0 0.0 0.00 0.00 0.00 93 1018.2
20260502104829 1 239 0.0 0.0 0.00 0.00 0.00 93 1018.2
20260502104217 1 239 0.0 0.0 0.00 0.00 0.00 93 1018.2
20260502103635 2 239 0.0 0.0 0.00 0.00 0.00 93 1018.2
20260502103043 2 239 0.0 0.0 0.00 0.00 0.00 93 1018.6
20260502102419 2 239 0.0 0.0 0.00 0.00 0.00 93 1018.9
20260502101846 2 239 0.0 0.0 0.00 0.00 0.00 93 1018.6
20260502100630 2 239 0.0 0.0 0.00 0.00 0.00 93 1018.6
20260502091252 2 239 0.0 0.0 0.00 0.00 0.00 92 1018.6
20260502090624 2 239 0.0 0.0 0.00 0.00 0.00 92 1018.9
20260502071224 2 239 0.0 0.0 0.00 0.00 0.00 90 1018.2
20260502070652 2 239 0.0 0.0 0.00 0.00 0.00 90 1018.2
20260502070035 2 239 0.0 0.0 0.00 0.00 0.00 90 1018.2
20260502063651 3 239 0.0 0.0 0.00 0.00 0.00 90 1018.2
20260502063042 3 239 0.0 0.0 0.00 0.00 0.00 89 1018.6
20260502061814 3 239 0.0 0.0 0.00 0.00 0.00 89 1018.9
20260502061249 3 239 0.0 0.0 0.00 0.00 0.00 88 1018.9
20260502060622 3 239 0.0 0.0 0.00 0.00 0.00 88 1018.9
20260502060047 3 239 0.0 0.0 0.00 0.00 0.00 88 1018.9
20260502055448 3 239 0.0 0.0 0.00 0.00 0.00 88 1018.9
20260502054820 3 239 0.0 0.0 0.00 0.00 0.00 88 1018.9
20260502054251 4 239 0.0 0.0 0.00 0.00 0.00 88 1018.9
20260502053021 4 239 0.0 0.0 0.00 0.00 0.00 88 1018.9
20260502052415 4 239 0.0 1.6 0.00 0.00 0.00 87 1018.9
20260502051826 4 239 0.0 1.6 0.00 0.00 0.00 87 1018.9
20260502051220 5 239 0.0 1.6 0.00 0.00 0.00 87 1018.9
20260502050628 5 239 0.0 0.0 0.00 0.00 0.00 86 1018.9
20260502050039 5 239 0.0 0.0 0.00 0.00 0.00 86 1018.9
20260502045433 5 239 0.0 0.0 0.00 0.00 0.00 84 1019.3
20260502044838 5 239 0.0 0.0 0.00 0.00 0.00 84 1018.9
20260502043629 5 239 0.0 0.0 0.00 0.00 0.00 84 1019.3
20260502043043 5 239 0.0 0.0 0.00 0.00 0.00 84 1018.9
20260502042435 6 239 0.0 0.0 0.00 0.00 0.00 83 1018.9
20260502041810 6 239 0.0 0.0 0.00 0.00 0.00 83 1018.9
20260502041217 6 239 0.0 0.0 0.00 0.00 0.00 83 1018.9
20260502040649 6 239 0.0 0.0 0.00 0.00 0.00 83 1018.9
20260502040019 6 239 0.0 0.0 0.00 0.00 0.03 82 1018.9
20260502035442 6 239 0.0 0.0 0.00 0.00 0.03 82 1018.9
20260502034810 6 239 0.0 0.0 0.00 0.00 0.03 82 1018.6
20260502034246 7 239 0.0 0.0 0.00 0.00 0.03 82 1018.9
20260502033649 7 239 0.0 0.0 0.00 0.00 0.03 81 1018.9
20260502033012 7 239 0.0 0.0 0.00 0.00 0.03 80 1018.9
20260502032426 7 239 0.0 0.0 0.00 0.00 0.03 79 1018.9
20260502031841 7 239 0.0 0.0 0.00 0.00 0.03 79 1018.9
20260502031213 7 239 0.0 0.0 0.00 0.00 0.03 79 1018.9
20260502030616 7 239 0.0 0.0 0.00 0.00 0.03 79 1018.9
20260502030046 8 239 0.0 0.0 0.00 0.00 0.03 78 1018.9
20260502025414 8 239 0.0 0.0 0.00 0.00 0.03 77 1018.9
20260502024827 8 239 0.0 0.0 0.00 0.00 0.03 75 1018.9
20260502024219 8 239 0.0 0.0 0.00 0.00 0.03 75 1018.9
20260502023624 8 239 0.0 0.0 0.00 0.00 0.03 75 1018.9
20260502023047 8 239 0.0 0.0 0.00 0.00 0.03 74 1018.6
20260502022427 9 239 0.0 0.0 0.00 0.00 0.03 73 1018.6
20260502021812 9 239 0.0 1.6 0.00 0.00 0.03 72 1018.2
20260502021234 9 239 0.0 1.6 0.00 0.00 0.03 71 1018.2
20260502020614 9 239 0.0 1.6 0.00 0.00 0.03 72 1017.9
20260502020036 10 239 0.0 1.6 0.00 0.00 0.03 72 1017.9
20260502015431 10 236 0.0 1.6 0.00 0.00 0.03 73 1017.9
20260502014842 10 206 0.0 4.8 0.00 0.00 0.03 74 1017.6
20260502014227 10 155 1.6 3.2 0.00 0.00 0.03 73 1017.6
20260502013620 10 231 0.0 4.8 0.00 0.00 0.03 71 1017.6
20260502013036 10 194 0.0 1.6 0.00 0.00 0.03 73 1017.6
20260502012450 10 168 0.0 9.7 0.00 0.00 0.03 70 1017.2
20260502011841 10 112 3.2 3.2 0.00 0.00 0.03 72 1017.2
20260502011224 10 161 3.2 3.2 0.00 0.00 0.03 71 1017.2
20260502010625 10 111 0.0 6.4 0.00 0.00 0.03 70 1016.9
20260502010053 11 170 1.6 6.4 0.00 0.00 0.03 73 1016.9
20260502005446 11 215 4.8 4.8 0.00 0.00 0.03 74 1016.5
20260502004843 11 187 1.6 6.4 0.00 0.00 0.03 75 1016.5
20260502004227 11 141 1.6 1.6 0.00 0.00 0.03 79 1016.2
20260502003649 11 92 0.0 0.0 0.00 0.00 0.03 80 1016.2
20260502002449 11 324 0.0 3.2 0.00 0.00 0.03 82 1016.2
20260502001832 11 117 3.2 3.2 0.00 0.00 0.03 83 1015.9
20260502001246 11 188 0.0 1.6 0.00 0.00 0.03 83 1015.9
20260502000031 11 94 0.0 0.0 0.00 0.00 0.03 82 1015.9
20260501235453 11 94 0.0 0.0 0.00 0.00 0.03 83 1015.5
20260501234840 11 94 0.0 0.0 0.00 0.00 0.03 83 1015.5
20260501234253 11 94 0.0 1.6 0.00 0.00 0.03 83 1015.2
20260501233644 11 94 1.6 1.6 0.00 0.00 0.03 83 1015.2
20260501233024 11 94 0.0 0.0 0.00 0.00 0.03 82 1014.9
20260501232442 11 94 0.0 0.0 0.00 0.00 0.03 81 1014.9
20260501231817 11 94 0.0 0.0 0.00 0.00 0.03 80 1015.2
20260501231255 11 94 0.0 0.0 0.00 0.00 0.03 81 1014.9
20260501230650 12 94 0.0 0.0 0.00 0.00 0.03 81 1014.9
20260501230036 12 94 0.0 0.0 0.00 0.00 0.03 80 1014.9
20260501225415 12 94 0.0 0.0 0.00 0.00 0.03 80 1014.9
20260501224827 12 94 0.0 0.0 0.00 0.00 0.03 78 1014.9
20260501224233 12 94 0.0 0.0 0.00 0.00 0.03 79 1014.9
20260501223616 12 94 0.0 0.0 0.00 0.00 0.03 78 1014.9
20260501223053 12 94 0.0 1.6 0.00 0.00 0.03 78 1014.9
20260501222451 12 94 0.0 1.6 0.00 0.00 0.03 76 1014.9
20260501221839 12 94 0.0 3.2 0.00 0.00 0.03 74 1014.9
20260501221246 13 140 0.0 3.2 0.00 0.00 0.03 71 1014.5
20260501220645 13 211 1.6 4.8 0.00 0.00 0.03 68 1014.9
20260501220021 13 144 3.2 11.3 0.00 0.00 0.03 66 1014.9
20260501215415 13 156 1.6 4.8 0.00 0.00 0.03 67 1014.9
20260501214238 13 163 1.6 6.4 0.00 0.00 0.03 65 1014.5
20260501213041 14 144 3.2 14.5 0.00 0.00 0.03 64 1014.2
20260501211829 15 257 1.6 9.7 0.00 0.00 0.03 71 1014.2
20260501211210 14 139 1.6 6.4 0.00 0.00 0.03 72 1014.2
20260501210617 14 74 4.8 16.1 0.00 0.00 0.03 72 1014.2
20260501210030 14 57 0.0 9.7 0.00 0.00 0.03 72 1014.2
20260501205421 15 196 3.2 6.4 0.00 0.00 0.03 73 1013.8
20260501204849 15 157 1.6 8.0 0.00 0.00 0.03 73 1013.8
20260501203622 15 86 0.0 4.8 0.00 0.00 0.03 72 1013.8
20260501202444 15 219 1.6 3.2 0.00 0.00 0.03 70 1013.8
20260501201809 15 99 3.2 4.8 0.00 0.00 0.03 70 1013.8
20260501201239 16 77 1.6 3.2 0.00 0.00 0.03 66 1013.5
20260501200048 16 156 3.2 9.7 0.00 0.00 0.00 60 1013.5
20260501194853 16 248 1.6 4.8 0.00 0.00 0.00 62 1013.2
20260501194230 16 126 1.6 4.8 0.00 0.00 0.00 56 1013.2
20260501193314 17 249 3.2 8.0 0.00 0.00 0.00 57 1013.2
20260501192719 17 145 4.8 4.8 0.00 0.00 0.00 54 1013.2
20260501192139 17 142 4.8 8.0 0.00 0.00 0.00 52 1013.2
20260501191517 18 141 1.6 9.7 0.00 0.00 0.00 44 1013.2
20260501190942 18 200 3.2 11.3 0.00 0.00 0.00 43 1013.2
20260501190351 18 159 1.6 6.4 0.00 0.00 0.00 47 1012.8
20260501185727 18 193 3.2 4.8 0.00 0.00 0.00 47 1012.8
20260501185114 19 173 0.0 8.0 0.00 0.00 0.00 44 1012.8
20260501184538 20 150 8.0 9.7 0.00 0.00 0.00 45 1012.8
20260501183947 20 140 1.6 8.0 0.00 0.00 0.00 42 1013.2